[[{"header":{"parameterUnit":"m.s-1","parameterCategory":1,"la1":30.2991,"la2":30.254,"lo1":-89.0895,"lo2":-89.0444,"dy":0.0017,"dx":0.0017,"nx":28,"ny":28,"refTime":"2023-08-25T21:00:00:Z","depth":0,"parameterNumber":2,"parameterNumberName":"U-component_of_WINDS"},"data":[0,0,0,0,0,0,0,0,0,0,0,0,0,0,0,0,0,0,0,0,0,0,0,0,0,0,0,0,0,0,0,0,0,0,0,0,0,0,0,0,0,0,0,0,0,0,0,0,0,0,0,0,0,0,0,0,0,0,-0.3435,-0.3436,0,-0.3481,-0.3482,-0.3482,-0.3533,-0.3534,-0.3535,-0.3535,-0.3582,-0.3582,-0.3583,0,0,0,0,0,0,0,0,0,0,0,0,0,-0.339,-0.339,-0.3435,-0.3436,-0.3436,-0.3481,-0.3482,-0.3483,-0.3533,-0.3534,-0.3535,-0.3536,-0.3582,-0.3582,-0.3583,0,0,0,0,0,0,0,0,0,0,0,0,0,-0.342,-0.339,-0.3435,-0.3467,-0.347,-0.3481,-0.3482,-0.3483,-0.3533,-0.3534,-0.3535,-0.3536,-0.3581,-0.3582,-0.3583,-0.3566,0,0,-0.3586,-0.3586,0,0,0,0,0,0,0,0,-0.3418,-0.3422,-0.3462,-0.3465,-0.3468,-0.3503,-0.3483,-0.3511,-0.3532,-0.3509,-0.3535,-0.3537,-0.3555,-0.3558,-0.3564,-0.3568,-0.357,-0.3586,-0.3586,-0.3587,-0.3587,0,0,0,0,0,0,0,-0.3416,-0.342,-0.3453,-0.3462,-0.3466,-0.3479,-0.3484,-0.3489,-0.3525,-0.3511,-0.3515,-0.352,-0.3557,-0.3563,-0.3565,-0.3571,-0.3586,-0.3586,-0.3587,-0.3587,-0.3565,-0.3564,0,0,0,0,0,0,-0.3409,-0.3418,-0.3452,-0.3455,-0.3446,-0.3479,-0.3485,-0.349,-0.3525,-0.3531,-0.3519,-0.3522,-0.3561,-0.3564,-0.3567,-0.355,-0.3587,-0.3587,-0.3588,-0.3566,-0.3564,-0.3563,0,0,0,0,0,0,-0.3408,-0.3412,-0.345,-0.3437,-0.3443,-0.3478,-0.3484,-0.3491,-0.3497,-0.3531,-0.3538,-0.3519,-0.3562,-0.3566,-0.3566,-0.3552,-0.3588,-0.3589,-0.3567,-0.3565,-0.3564,-0.3515,0,0,0,0,0,0,-0.3406,-0.3411,-0.3405,-0.3437,-0.3444,-0.3448,-0.3483,-0.3491,-0.3499,-0.3503,-0.3533,-0.3538,-0.3563,-0.3565,-0.3567,-0.3554,-0.3589,-0.3568,-0.3566,-0.3564,-0.3518,-0.3512,-0.3507,0,0,0,0,0,-0.3405,-0.3389,-0.3405,-0.3408,-0.3437,-0.3447,-0.3451,-0.348,-0.3497,-0.3492,-0.3513,-0.3537,-0.3553,-0.3564,-0.3567,-0.3554,-0.3569,-0.3567,-0.3564,-0.3521,-0.3513,-0.3507,0,0,0,0,0,0,-0.3355,-0.3394,-0.3411,-0.3406,-0.3423,-0.3456,-0.3449,-0.3471,-0.3484,-0.3488,-0.3523,-0.3529,-0.3525,-0.354,-0.3551,-0.354,-0.3565,-0.3563,-0.3531,-0.3524,-0.3518,-0.3514,-0.359,0,0,0,0,0,-0.3343,-0.3348,-0.3382,-0.3374,-0.3382,-0.3414,-0.342,-0.3441,-0.346,-0.3467,-0.3489,-0.3506,-0.3515,-0.352,-0.3531,-0.3521,-0.3528,-0.3513,-0.3507,-0.3503,-0.35,-0.3496,-0.349,-0.3555,-0.3555,-0.3555,0,0,-0.3319,-0.3341,-0.3342,-0.3365,-0.338,-0.3385,-0.342,-0.3423,-0.3427,-0.3468,-0.3469,-0.3486,-0.3507,-0.3502,-0.3501,-0.3515,-0.3484,-0.35,-0.3495,-0.3496,-0.3493,-0.3487,-0.3482,-0.3553,-0.3554,-0.3554,0,0,-0.3277,-0.3295,-0.329,-0.3305,-0.3328,-0.335,-0.3349,-0.3379,-0.3391,-0.3393,-0.3424,-0.3429,-0.3444,-0.3458,-0.3467,-0.3431,-0.3454,-0.3434,-0.3404,-0.3399,-0.3394,-0.339,-0.3377,-0.3372,-0.3431,-0.3431,-0.3431,0,-0.3244,-0.3252,-0.3284,-0.3286,-0.3295,-0.3332,-0.3328,-0.3341,-0.3366,-0.3371,-0.3386,-0.3406,-0.3423,-0.3422,-0.3413,-0.3419,-0.3419,-0.343,-0.3393,-0.3389,-0.3385,-0.3373,-0.3368,-0.3429,-0.3429,-0.3429,-0.3429,0,-0.3211,-0.3216,-0.3209,-0.3233,-0.3241,-0.324,-0.3271,-0.3276,-0.3296,-0.3316,-0.3318,-0.334,-0.3355,-0.3357,-0.3376,-0.3359,-0.3366,-0.3386,-0.3412,-0.3376,-0.3365,-0.3361,-0.3425,-0.3426,-0.3427,-0.3427,0,0,-0.3138,-0.318,-0.3177,-0.3188,-0.3217,-0.3222,-0.3222,-0.3237,-0.3241,-0.3257,-0.3258,-0.327,-0.3289,-0.3299,-0.3321,-0.3317,-0.3287,-0.3338,-0.3339,-0.3327,-0.3269,-0.3253,-0.3248,-0.3303,-0.3302,-0.3301,-0.3267,0,-0.3101,-0.3104,-0.3133,-0.3127,-0.3133,-0.3168,-0.3169,-0.3186,-0.3205,-0.3212,-0.3233,-0.3241,-0.3265,-0.3271,-0.3269,-0.3291,-0.3276,-0.3294,-0.3304,-0.3304,-0.3297,-0.3242,-0.3226,-0.3192,-0.3263,-0.3262,-0.3262,0,-0.3059,-0.3073,-0.3068,-0.3097,-0.31,-0.31,-0.3116,-0.3123,-0.3144,-0.3158,-0.3169,-0.3194,-0.3196,-0.3221,-0.3224,-0.3236,-0.3242,-0.3253,-0.3252,-0.3254,-0.328,-0.3242,-0.3182,-0.3177,-0.3256,-0.3256,-0.3257,0,-0.3006,-0.3024,-0.3023,-0.3032,-0.3066,-0.3065,-0.3079,-0.3101,-0.3109,-0.3123,-0.3128,-0.3143,-0.315,-0.3161,-0.3189,-0.3204,-0.3189,-0.3216,-0.3201,-0.32,-0.3196,-0.3195,-0.3136,-0.32,-0.32,-0.32,-0.32,0,-0.2962,-0.2957,-0.3,-0.3,-0.2996,-0.3029,-0.3024,-0.3042,-0.3061,-0.3064,-0.3096,-0.3099,-0.3136,-0.3143,-0.3165,-0.3164,-0.3168,-0.3179,-0.3185,-0.3176,-0.3174,-0.318,-0.3183,-0.3198,-0.3199,-0.3199,-0.3199,0,-0.2902,-0.2931,-0.2933,-0.2965,-0.2973,-0.2969,-0.2996,-0.2997,-0.3018,-0.3022,-0.3025,-0.3058,-0.3067,-0.3097,-0.3114,-0.3129,-0.3122,-0.3133,-0.3114,-0.3118,-0.3101,-0.3102,-0.3043,-0.3037,-0.3104,-0.3104,-0.3103,0,-0.2872,-0.287,-0.2902,-0.2907,-0.2919,-0.2927,-0.2935,-0.2967,-0.2974,-0.2998,-0.2996,-0.3008,-0.302,-0.3034,-0.3059,-0.3072,-0.3084,-0.3062,-0.3086,-0.3077,-0.3084,-0.3083,-0.3083,-0.3057,-0.3056,-0.3055,-0.3055,0,-0.2815,-0.283,-0.284,-0.2855,-0.2864,-0.2877,-0.2893,-0.2895,-0.2931,-0.2938,-0.2948,-0.2957,-0.2975,-0.2986,-0.3004,-0.3019,-0.3042,-0.3047,-0.3044,-0.3035,-0.3024,-0.303,-0.31,-0.3048,-0.3049,-0.3049,-0.3049,-0.305,-0.277,-0.2769,-0.2792,-0.2802,-0.2817,-0.2831,-0.2833,-0.2855,-0.2864,-0.2881,-0.29,-0.2908,-0.293,-0.2955,-0.2968,-0.2975,-0.2988,-0.2984,-0.2983,-0.2982,-0.2977,-0.3023,-0.2979,-0.2979,-0.2979,-0.2979,-0.298,0,-0.2714,-0.2731,-0.274,-0.2761,-0.2769,-0.2791,-0.2809,-0.2815,-0.2822,-0.284,-0.2851,-0.2863,-0.2874,-0.2901,-0.2915,-0.2916,-0.2927,-0.2918,-0.2918,-0.2921,-0.2965,-0.2966,-0.2909,-0.2909,-0.2909,-0.2909,-0.2909,-0.2909,-0.2687,-0.2687,-0.2704,-0.2712,-0.2729,-0.2737,-0.2745,-0.2758,-0.2773,-0.2785,-0.2795,-0.2812,-0.2834,-0.285,-0.2862,-0.2869,-0.2873,-0.286,-0.2871,-0.2912,-0.2918,-0.2925,-0.2926,-0.2861,-0.2861,-0.2827,-0.2827,-0.2827]},{"header":{"parameterUnit":"m.s-1","parameterCategory":1,"la1":30.2991,"la2":30.254,"lo1":-89.0895,"lo2":-89.0444,"dy":0.0017,"dx":0.0017,"nx":28,"ny":28,"refTime":"2023-08-25T21:00:00:Z","depth":0,"parameterNumber":3,"parameterNumberName":"V-component_of_WINDS"},"data":[0,0,0,0,0,0,0,0,0,0,0,0,0,0,0,0,0,0,0,0,0,0,0,0,0,0,0,0,0,0,0,0,0,0,0,0,0,0,0,0,0,0,0,0,0,0,0,0,0,0,0,0,0,0,0,0,0,0,-0.7268,-0.7267,0,-0.7199,-0.7198,-0.7198,-0.7152,-0.7152,-0.7151,-0.7151,-0.7079,-0.7078,-0.7076,0,0,0,0,0,0,0,0,0,0,0,0,0,-0.7361,-0.736,-0.7268,-0.7267,-0.7267,-0.7199,-0.7198,-0.7197,-0.7152,-0.7152,-0.7151,-0.7151,-0.708,-0.7078,-0.7076,0,0,0,0,0,0,0,0,0,0,0,0,0,-0.7309,-0.7359,-0.7268,-0.7236,-0.7232,-0.7199,-0.7198,-0.7197,-0.7152,-0.7152,-0.7151,-0.7151,-0.7081,-0.7078,-0.7076,-0.707,0,0,-0.7068,-0.7067,0,0,0,0,0,0,0,0,-0.7312,-0.7306,-0.7241,-0.7238,-0.7234,-0.7184,-0.7205,-0.7154,-0.7152,-0.7182,-0.7151,-0.7151,-0.7114,-0.7109,-0.7097,-0.7066,-0.7063,-0.7068,-0.7067,-0.7066,-0.7065,0,0,0,0,0,0,0,-0.7316,-0.7309,-0.7241,-0.7241,-0.7236,-0.7225,-0.7217,-0.7195,-0.7152,-0.718,-0.7176,-0.7169,-0.7112,-0.71,-0.7095,-0.7062,-0.7068,-0.7066,-0.7064,-0.7064,-0.7025,-0.7025,0,0,0,0,0,0,-0.7325,-0.7312,-0.7243,-0.7239,-0.7273,-0.7224,-0.7215,-0.72,-0.7152,-0.7144,-0.7169,-0.7167,-0.7104,-0.7098,-0.7092,-0.7083,-0.7066,-0.7063,-0.7062,-0.7024,-0.7025,-0.7025,0,0,0,0,0,0,-0.7327,-0.7319,-0.7246,-0.7274,-0.7264,-0.7222,-0.7207,-0.7199,-0.7186,-0.7144,-0.7136,-0.7164,-0.7103,-0.7096,-0.7076,-0.708,-0.7062,-0.706,-0.7024,-0.7025,-0.7025,-0.7065,0,0,0,0,0,0,-0.733,-0.732,-0.7317,-0.7275,-0.7263,-0.7231,-0.7207,-0.7198,-0.7182,-0.7179,-0.7137,-0.713,-0.7102,-0.708,-0.7074,-0.7077,-0.7058,-0.7023,-0.7024,-0.7025,-0.7063,-0.7067,-0.707,0,0,0,0,0,-0.7333,-0.733,-0.7317,-0.7309,-0.7258,-0.7231,-0.7224,-0.7193,-0.7183,-0.718,-0.7153,-0.7131,-0.7081,-0.7078,-0.7071,-0.7073,-0.7023,-0.7024,-0.7025,-0.7061,-0.7066,-0.707,0,0,0,0,0,0,-0.7373,-0.7324,-0.7309,-0.7292,-0.7266,-0.7223,-0.7218,-0.7199,-0.7175,-0.7172,-0.7134,-0.7125,-0.711,-0.7089,-0.7088,-0.7066,-0.7049,-0.7049,-0.708,-0.7084,-0.7087,-0.7093,-0.7056,0,0,0,0,0,-0.7381,-0.7363,-0.732,-0.731,-0.7297,-0.726,-0.7247,-0.7226,-0.7197,-0.7186,-0.7157,-0.713,-0.7108,-0.7095,-0.7072,-0.706,-0.7051,-0.7058,-0.7061,-0.7064,-0.7064,-0.7058,-0.7061,-0.7029,-0.7029,-0.7029,0,0,-0.7394,-0.7365,-0.7356,-0.7317,-0.7294,-0.7277,-0.7251,-0.7233,-0.722,-0.7183,-0.7163,-0.7141,-0.7109,-0.7093,-0.7085,-0.7076,-0.7071,-0.7065,-0.7068,-0.7067,-0.7059,-0.7062,-0.7065,-0.7029,-0.7029,-0.7029,0,0,-0.7411,-0.7387,-0.7376,-0.7355,-0.7321,-0.7297,-0.7295,-0.7255,-0.7239,-0.7219,-0.7191,-0.7175,-0.7138,-0.7116,-0.7101,-0.7112,-0.7091,-0.7105,-0.7124,-0.7118,-0.7121,-0.7123,-0.7128,-0.713,-0.7106,-0.7106,-0.7106,0,-0.7433,-0.7406,-0.7373,-0.7358,-0.7342,-0.7308,-0.7298,-0.7278,-0.7239,-0.7229,-0.7219,-0.7173,-0.7149,-0.7128,-0.7132,-0.7119,-0.7116,-0.711,-0.7123,-0.7125,-0.7126,-0.7131,-0.7133,-0.7108,-0.7108,-0.7107,-0.7107,0,-0.7435,-0.7416,-0.7412,-0.7376,-0.7359,-0.7346,-0.7313,-0.73,-0.728,-0.7257,-0.7238,-0.7208,-0.7179,-0.7173,-0.7153,-0.715,-0.7146,-0.713,-0.7113,-0.7132,-0.7136,-0.7137,-0.7111,-0.711,-0.7109,-0.7109,0,0,-0.7473,-0.7422,-0.742,-0.7405,-0.7366,-0.7351,-0.7338,-0.7311,-0.7301,-0.7276,-0.7264,-0.7234,-0.722,-0.7202,-0.718,-0.7174,-0.7187,-0.7159,-0.7158,-0.7166,-0.7184,-0.7197,-0.7199,-0.7173,-0.7173,-0.7174,-0.7187,0,-0.7485,-0.7459,-0.743,-0.7414,-0.7398,-0.7366,-0.7354,-0.733,-0.7308,-0.7292,-0.7267,-0.7248,-0.723,-0.7219,-0.7213,-0.7187,-0.719,-0.7185,-0.7162,-0.7162,-0.7172,-0.7201,-0.7214,-0.7228,-0.7188,-0.7188,-0.7189,0,-0.7495,-0.7473,-0.7455,-0.742,-0.7412,-0.7402,-0.7376,-0.736,-0.7332,-0.7317,-0.7298,-0.7275,-0.7259,-0.7245,-0.7223,-0.7221,-0.721,-0.7196,-0.7196,-0.7193,-0.7177,-0.72,-0.7232,-0.7234,-0.719,-0.719,-0.719,0,-0.7527,-0.7492,-0.7478,-0.7465,-0.7423,-0.7417,-0.74,-0.7371,-0.7358,-0.7335,-0.7326,-0.7301,-0.7288,-0.727,-0.7241,-0.7232,-0.7223,-0.7205,-0.7211,-0.7212,-0.721,-0.7211,-0.7242,-0.7202,-0.7202,-0.7202,-0.7202,0,-0.7544,-0.7534,-0.7492,-0.7483,-0.7472,-0.744,-0.743,-0.741,-0.7385,-0.7372,-0.7343,-0.7332,-0.7294,-0.7278,-0.7255,-0.7242,-0.7235,-0.7223,-0.7217,-0.7226,-0.7228,-0.7219,-0.7217,-0.7202,-0.7202,-0.7202,-0.7202,0,-0.7577,-0.7548,-0.7531,-0.7493,-0.7484,-0.7478,-0.7446,-0.7437,-0.7414,-0.7398,-0.7393,-0.7358,-0.7338,-0.7307,-0.7277,-0.7262,-0.7253,-0.7243,-0.7263,-0.7259,-0.7267,-0.7267,-0.7294,-0.7296,-0.7254,-0.7255,-0.7255,0,-0.759,-0.7582,-0.7545,-0.7535,-0.7519,-0.7502,-0.7488,-0.7457,-0.7444,-0.7413,-0.7407,-0.7385,-0.7366,-0.7336,-0.7308,-0.7285,-0.7275,-0.7286,-0.7271,-0.7281,-0.7276,-0.7278,-0.7277,-0.7289,-0.729,-0.729,-0.7291,0,-0.7616,-0.7603,-0.7584,-0.7562,-0.7547,-0.7527,-0.7506,-0.7499,-0.7463,-0.745,-0.743,-0.7416,-0.7386,-0.7365,-0.734,-0.7321,-0.7301,-0.7296,-0.7296,-0.7305,-0.7318,-0.7313,-0.7273,-0.7295,-0.7295,-0.7294,-0.7294,-0.7294,-0.764,-0.7633,-0.7606,-0.7587,-0.7569,-0.755,-0.754,-0.7518,-0.75,-0.7475,-0.7457,-0.7439,-0.7412,-0.7376,-0.7359,-0.7344,-0.7335,-0.7335,-0.7335,-0.7336,-0.734,-0.732,-0.7339,-0.7339,-0.7339,-0.7338,-0.7338,0,-0.7666,-0.7648,-0.7631,-0.7603,-0.7589,-0.7571,-0.7548,-0.7537,-0.7521,-0.7499,-0.7481,-0.7459,-0.7439,-0.741,-0.7388,-0.7382,-0.7372,-0.7377,-0.7377,-0.7374,-0.7348,-0.7351,-0.7386,-0.7386,-0.7386,-0.7386,-0.7386,-0.7386,-0.7678,-0.7665,-0.7649,-0.7627,-0.7609,-0.7591,-0.7579,-0.7563,-0.7545,-0.7522,-0.7505,-0.7487,-0.7462,-0.7438,-0.742,-0.7411,-0.7405,-0.7414,-0.7403,-0.738,-0.7375,-0.7371,-0.7374,-0.7412,-0.7412,-0.743,-0.743,-0.743]}]]